[[{"header":{"parameterUnit":"m.s-1","parameterCategory":1,"la1":30.2991,"la2":30.254,"lo1":-89.0895,"lo2":-89.0444,"dy":0.0017,"dx":0.0017,"nx":28,"ny":28,"refTime":"2024-03-23T09:00:00:Z","depth":0,"parameterNumber":2,"parameterNumberName":"U-component_of_WINDS"},"data":[0,0,0,0,0,0,0,0,0,0,0,0,0,0,0,0,0,0,0,0,0,0,0,0,0,0,0,0,0,0,0,0,0,0,0,0,0,0,0,0,0,0,0,0,0,0,0,0,0,0,0,0,0,0,0,0,0,0,-4.6746,-4.6746,0,-4.6749,-4.6749,-4.6749,-4.6682,-4.668,-4.6678,-4.6677,-4.6681,-4.6682,-4.6684,0,0,0,0,0,0,0,0,0,0,0,0,0,-4.6681,-4.6682,-4.6746,-4.6746,-4.6746,-4.6749,-4.6749,-4.6749,-4.6682,-4.668,-4.6678,-4.6676,-4.668,-4.6682,-4.6684,0,0,0,0,0,0,0,0,0,0,0,0,0,-4.6699,-4.6683,-4.6746,-4.6713,-4.671,-4.6749,-4.6749,-4.6749,-4.6683,-4.668,-4.6677,-4.6675,-4.6679,-4.6682,-4.6685,-4.6756,0,0,-4.6693,-4.6694,0,0,0,0,0,0,0,0,-4.6698,-4.6702,-4.6717,-4.6715,-4.6712,-4.6712,-4.6728,-4.6752,-4.6683,-4.6693,-4.6677,-4.6673,-4.6693,-4.6695,-4.6701,-4.6756,-4.6756,-4.6693,-4.6695,-4.6696,-4.6697,0,0,0,0,0,0,0,-4.6697,-4.6701,-4.6747,-4.6718,-4.6714,-4.6698,-4.6697,-4.6732,-4.6709,-4.6692,-4.6687,-4.6688,-4.6691,-4.6699,-4.6701,-4.6756,-4.6693,-4.6695,-4.6697,-4.6698,-4.6869,-4.6872,0,0,0,0,0,0,-4.67,-4.67,-4.6747,-4.6747,-4.6698,-4.6701,-4.6701,-4.6715,-4.6708,-4.6704,-4.6691,-4.6685,-4.6696,-4.6698,-4.6701,-4.6783,-4.6696,-4.6698,-4.67,-4.6866,-4.6869,-4.6873,0,0,0,0,0,0,-4.6699,-4.6705,-4.6747,-4.6722,-4.6726,-4.6705,-4.6722,-4.6716,-4.6724,-4.6707,-4.6702,-4.6703,-4.6694,-4.6697,-4.6743,-4.6782,-4.67,-4.6702,-4.6863,-4.6867,-4.6871,-4.6948,0,0,0,0,0,0,-4.6697,-4.6705,-4.6732,-4.6724,-4.6728,-4.6789,-4.6724,-4.6718,-4.6729,-4.6722,-4.6717,-4.6714,-4.6692,-4.6739,-4.6745,-4.6784,-4.6704,-4.6859,-4.6865,-4.687,-4.6942,-4.6955,-4.6966,0,0,0,0,0,-4.6695,-4.6754,-4.6733,-4.6739,-4.6761,-4.6791,-4.6793,-4.6767,-4.6732,-4.6759,-4.6748,-4.6714,-4.6777,-4.6744,-4.6751,-4.6791,-4.6856,-4.6863,-4.6869,-4.6937,-4.6952,-4.6965,0,0,0,0,0,0,-4.6767,-4.6752,-4.6729,-4.6787,-4.6791,-4.6779,-4.6812,-4.6784,-4.6798,-4.6791,-4.6757,-4.6757,-4.6808,-4.6804,-4.6767,-4.686,-4.6811,-4.6819,-4.686,-4.6874,-4.6886,-4.6885,-4.6706,0,0,0,0,0,-4.679,-4.6815,-4.68,-4.6853,-4.6856,-4.6834,-4.6846,-4.6825,-4.6828,-4.6829,-4.6821,-4.6825,-4.6846,-4.686,-4.6878,-4.6942,-4.6939,-4.6973,-4.6985,-4.6995,-4.7002,-4.7034,-4.7049,-4.6894,-4.6894,-4.6894,0,0,-4.6837,-4.6831,-4.6849,-4.6867,-4.6867,-4.6894,-4.6836,-4.6867,-4.6886,-4.6834,-4.6876,-4.6871,-4.6873,-4.6927,-4.6951,-4.6926,-4.7044,-4.7003,-4.7011,-4.7013,-4.7042,-4.7057,-4.707,-4.6899,-4.6898,-4.6897,0,0,-4.6935,-4.6934,-4.6977,-4.6979,-4.698,-4.6965,-4.6976,-4.6969,-4.6963,-4.7005,-4.6966,-4.6989,-4.7025,-4.7028,-4.7034,-4.7134,-4.7103,-4.7141,-4.7202,-4.7235,-4.7247,-4.7257,-4.7292,-4.7305,-4.7149,-4.7149,-4.7149,0,-4.6993,-4.7032,-4.7003,-4.7036,-4.7045,-4.6998,-4.7041,-4.7044,-4.7052,-4.7059,-4.7031,-4.7075,-4.7074,-4.7128,-4.7152,-4.7159,-4.717,-4.7141,-4.7247,-4.7258,-4.7267,-4.73,-4.7313,-4.7154,-4.7153,-4.7153,-4.7152,0,-4.7102,-4.713,-4.7164,-4.7172,-4.7185,-4.7223,-4.72,-4.7216,-4.7194,-4.7183,-4.7225,-4.7222,-4.7238,-4.725,-4.7229,-4.7301,-4.7285,-4.7253,-4.7203,-4.7287,-4.7317,-4.7329,-4.716,-4.7158,-4.7157,-4.7156,0,0,-4.7246,-4.7237,-4.725,-4.7253,-4.7251,-4.7272,-4.7308,-4.7323,-4.7338,-4.7345,-4.7374,-4.7406,-4.7375,-4.7383,-4.7362,-4.7391,-4.7469,-4.7354,-4.7354,-4.7375,-4.7547,-4.757,-4.7585,-4.7449,-4.7451,-4.7453,-4.7546,0,-4.7341,-4.7401,-4.7376,-4.7439,-4.7463,-4.742,-4.7451,-4.7454,-4.7444,-4.7463,-4.7452,-4.7475,-4.7434,-4.7438,-4.7464,-4.7454,-4.7503,-4.7447,-4.7475,-4.7476,-4.7474,-4.7601,-4.7626,-4.7714,-4.7558,-4.756,-4.7561,0,-4.7459,-4.7471,-4.7536,-4.7529,-4.7538,-4.7567,-4.7579,-4.7598,-4.76,-4.7591,-4.7599,-4.7572,-4.7607,-4.7558,-4.7605,-4.7567,-4.7577,-4.7574,-4.7577,-4.7577,-4.7523,-4.7604,-4.7742,-4.7755,-4.758,-4.7578,-4.7577,0,-4.7556,-4.7588,-4.763,-4.7634,-4.7628,-4.7649,-4.7647,-4.7646,-4.7657,-4.7668,-4.7674,-4.7689,-4.7697,-4.771,-4.7687,-4.7654,-4.7737,-4.7687,-4.773,-4.773,-4.7748,-4.7747,-4.7889,-4.7757,-4.7757,-4.7757,-4.7756,0,-4.7664,-4.7705,-4.7674,-4.77,-4.7745,-4.7716,-4.7761,-4.7755,-4.7754,-4.7778,-4.7742,-4.7766,-4.7735,-4.7756,-4.7739,-4.778,-4.7784,-4.7777,-4.7772,-4.778,-4.7781,-4.7785,-4.7778,-4.776,-4.7759,-4.7759,-4.7758,0,-4.7779,-4.776,-4.7803,-4.7794,-4.7792,-4.7826,-4.7817,-4.7841,-4.7829,-4.786,-4.7865,-4.7846,-4.7868,-4.7847,-4.7869,-4.7857,-4.7912,-4.7898,-4.7911,-4.7907,-4.7951,-4.7947,-4.8099,-4.8117,-4.7975,-4.7977,-4.7978,0,-4.7849,-4.7879,-4.7873,-4.7886,-4.7887,-4.7909,-4.792,-4.7892,-4.7905,-4.7909,-4.7932,-4.7952,-4.7965,-4.8003,-4.7991,-4.8007,-4.7993,-4.8045,-4.7995,-4.8002,-4.7992,-4.799,-4.7993,-4.8055,-4.8057,-4.8058,-4.8059,0,-4.7974,-4.7963,-4.798,-4.7993,-4.8007,-4.8016,-4.8023,-4.8036,-4.8008,-4.8024,-4.8046,-4.8057,-4.8078,-4.8097,-4.811,-4.8108,-4.8079,-4.8075,-4.8086,-4.8094,-4.8099,-4.8096,-4.7937,-4.8072,-4.807,-4.807,-4.8069,-4.8068,-4.8068,-4.8093,-4.8092,-4.8112,-4.8114,-4.8121,-4.8142,-4.8132,-4.815,-4.8165,-4.8148,-4.8175,-4.8176,-4.8189,-4.8191,-4.8211,-4.8189,-4.8205,-4.8209,-4.8213,-4.8219,-4.8097,-4.8214,-4.8213,-4.8213,-4.8212,-4.8212,0,-4.8191,-4.8188,-4.8206,-4.8216,-4.8232,-4.8203,-4.8209,-4.8224,-4.8248,-4.8251,-4.8265,-4.829,-4.8308,-4.8298,-4.8314,-4.8332,-4.8319,-4.8337,-4.8335,-4.8335,-4.8238,-4.8227,-4.8347,-4.8347,-4.8347,-4.8347,-4.8347,-4.8347,-4.8256,-4.8297,-4.8285,-4.8326,-4.8323,-4.8349,-4.8354,-4.836,-4.8362,-4.8392,-4.8407,-4.84,-4.8397,-4.8412,-4.8428,-4.8424,-4.8431,-4.8454,-4.8446,-4.8355,-4.8342,-4.8329,-4.8318,-4.8456,-4.8456,-4.854,-4.8541,-4.8542]},{"header":{"parameterUnit":"m.s-1","parameterCategory":1,"la1":30.2991,"la2":30.254,"lo1":-89.0895,"lo2":-89.0444,"dy":0.0017,"dx":0.0017,"nx":28,"ny":28,"refTime":"2024-03-23T09:00:00:Z","depth":0,"parameterNumber":3,"parameterNumberName":"V-component_of_WINDS"},"data":[0,0,0,0,0,0,0,0,0,0,0,0,0,0,0,0,0,0,0,0,0,0,0,0,0,0,0,0,0,0,0,0,0,0,0,0,0,0,0,0,0,0,0,0,0,0,0,0,0,0,0,0,0,0,0,0,0,0,5.2306,5.2306,0,5.2309,5.2309,5.2309,5.2228,5.2226,5.2224,5.2222,5.2223,5.2225,5.2227,0,0,0,0,0,0,0,0,0,0,0,0,0,5.223,5.2232,5.2306,5.2306,5.2306,5.2309,5.2309,5.2309,5.2229,5.2226,5.2223,5.2221,5.2223,5.2225,5.2228,0,0,0,0,0,0,0,0,0,0,0,0,0,5.2251,5.2233,5.2306,5.2266,5.2263,5.2309,5.2309,5.2309,5.2229,5.2226,5.2223,5.222,5.2222,5.2225,5.2228,5.2311,0,0,5.2237,5.2239,0,0,0,0,0,0,0,0,5.225,5.2254,5.2272,5.2269,5.2265,5.2265,5.2283,5.231,5.223,5.2242,5.2222,5.2218,5.224,5.2241,5.2249,5.2312,5.2312,5.2238,5.224,5.2241,5.2242,0,0,0,0,0,0,0,5.2249,5.2253,5.2307,5.2272,5.2268,5.2248,5.2248,5.2287,5.2259,5.224,5.2235,5.2236,5.2237,5.2246,5.2248,5.2312,5.2238,5.224,5.2242,5.2243,5.2445,5.2448,0,0,0,0,0,0,5.2253,5.2253,5.2307,5.2307,5.225,5.2252,5.2251,5.2268,5.2258,5.2253,5.2239,5.2232,5.2242,5.2245,5.2248,5.2346,5.2241,5.2244,5.2245,5.2441,5.2446,5.2449,0,0,0,0,0,0,5.2252,5.2258,5.2306,5.2278,5.2283,5.2257,5.2276,5.227,5.2278,5.2257,5.2251,5.2253,5.224,5.2244,5.2297,5.2344,5.2245,5.2248,5.2437,5.2443,5.2447,5.2542,0,0,0,0,0,0,5.225,5.2258,5.229,5.228,5.2285,5.2355,5.2279,5.2272,5.2284,5.2276,5.2269,5.2264,5.2238,5.2293,5.23,5.2347,5.225,5.2433,5.244,5.2446,5.2534,5.2549,5.2563,0,0,0,0,0,5.2247,5.2315,5.2292,5.2299,5.2323,5.2358,5.2361,5.2329,5.2288,5.232,5.2306,5.2265,5.2339,5.2299,5.2306,5.2355,5.2429,5.2438,5.2445,5.2528,5.2546,5.2562,0,0,0,0,0,0,5.233,5.2313,5.2287,5.2353,5.2358,5.2345,5.2383,5.235,5.2366,5.2357,5.2316,5.2316,5.2375,5.237,5.2326,5.2436,5.2377,5.2387,5.2437,5.2454,5.2468,5.2468,5.2253,0,0,0,0,0,5.2357,5.2387,5.237,5.2431,5.2435,5.2409,5.2423,5.2398,5.2401,5.2402,5.2393,5.2397,5.2421,5.2437,5.2458,5.2534,5.2531,5.2571,5.2585,5.2597,5.2606,5.2646,5.2664,5.2475,5.2475,5.2475,0,0,5.2411,5.2405,5.2426,5.2447,5.2448,5.248,5.2411,5.2447,5.2471,5.2408,5.2457,5.2451,5.2453,5.2518,5.2546,5.2516,5.2658,5.2607,5.2617,5.2619,5.2656,5.2674,5.269,5.2481,5.248,5.2479,0,0,5.2526,5.2525,5.2576,5.2578,5.2581,5.2564,5.2576,5.2569,5.2562,5.2612,5.2565,5.2593,5.2635,5.2639,5.2646,5.2767,5.2729,5.2775,5.2848,5.2888,5.2903,5.2916,5.2959,5.2975,5.2783,5.2784,5.2784,0,5.2592,5.2639,5.2606,5.2646,5.2657,5.2603,5.2655,5.2659,5.2668,5.2677,5.2643,5.2696,5.2694,5.2759,5.2789,5.2797,5.281,5.2774,5.2904,5.2917,5.2928,5.2969,5.2985,5.2789,5.2789,5.2788,5.2787,0,5.2722,5.2755,5.2796,5.2808,5.2823,5.2869,5.2843,5.2863,5.2838,5.2825,5.2877,5.2872,5.2892,5.2906,5.2881,5.2969,5.295,5.2911,5.285,5.2952,5.299,5.3005,5.2797,5.2795,5.2793,5.2792,0,0,5.2886,5.2881,5.2897,5.2902,5.2902,5.2927,5.2972,5.2992,5.301,5.3019,5.3055,5.3094,5.3058,5.3067,5.3042,5.3078,5.3174,5.3034,5.3034,5.306,5.3271,5.33,5.3318,5.315,5.3153,5.3155,5.3271,0,5.2998,5.3073,5.3046,5.3123,5.3154,5.3104,5.3143,5.3148,5.3137,5.3162,5.315,5.3178,5.3129,5.3134,5.3167,5.3155,5.3215,5.3146,5.3183,5.3184,5.3183,5.3338,5.3368,5.3478,5.3285,5.3287,5.3289,0,5.3138,5.3154,5.3235,5.3232,5.3244,5.3279,5.3296,5.3321,5.3326,5.3316,5.3327,5.3295,5.3339,5.328,5.3339,5.3293,5.3307,5.3303,5.3307,5.3308,5.3242,5.3343,5.3512,5.3528,5.3312,5.331,5.3308,0,5.325,5.3293,5.3347,5.3353,5.335,5.3376,5.3376,5.3378,5.3393,5.3408,5.3418,5.3438,5.3449,5.3465,5.344,5.3399,5.3504,5.3442,5.3496,5.3497,5.3519,5.3518,5.3692,5.353,5.3529,5.3529,5.3529,0,5.3378,5.3429,5.3397,5.3431,5.3487,5.3456,5.3512,5.3507,5.3509,5.3541,5.3499,5.353,5.3495,5.3522,5.3503,5.3556,5.3561,5.3554,5.3548,5.3558,5.3559,5.3565,5.3557,5.3533,5.3532,5.3531,5.3531,0,5.3512,5.3493,5.3549,5.3543,5.3543,5.3585,5.358,5.361,5.3598,5.3638,5.3646,5.3626,5.3657,5.3634,5.3663,5.365,5.372,5.3704,5.3719,5.3714,5.377,5.3765,5.3954,5.3977,5.38,5.3801,5.3803,0,5.3594,5.3633,5.3632,5.3651,5.3654,5.3684,5.37,5.3671,5.3689,5.3699,5.3728,5.3755,5.3775,5.3826,5.3814,5.3837,5.3821,5.3885,5.3823,5.3832,5.3822,5.382,5.3823,5.3897,5.3899,5.3901,5.3903,0,5.3742,5.3732,5.3756,5.3778,5.3798,5.3813,5.3825,5.3843,5.3814,5.3836,5.3867,5.3883,5.3914,5.3942,5.3961,5.3961,5.3927,5.3923,5.3936,5.3946,5.3953,5.395,5.3753,5.3918,5.3916,5.3915,5.3914,5.3914,5.3853,5.3885,5.3891,5.392,5.3926,5.3939,5.3968,5.3961,5.3986,5.401,5.3992,5.4029,5.4035,5.4057,5.4061,5.409,5.4063,5.4083,5.4088,5.4094,5.4102,5.3949,5.4093,5.4093,5.4093,5.4092,5.4092,0,5.3999,5.4,5.4028,5.4047,5.407,5.4038,5.4051,5.4072,5.4106,5.4114,5.4136,5.4172,5.4199,5.4191,5.4215,5.424,5.4225,5.4247,5.4245,5.4246,5.4124,5.411,5.4259,5.4259,5.4259,5.4259,5.4259,5.4259,5.4077,5.4132,5.4122,5.418,5.418,5.4218,5.4228,5.424,5.4246,5.429,5.4313,5.4307,5.4309,5.4334,5.4357,5.4354,5.4365,5.4393,5.4384,5.427,5.4254,5.4238,5.4224,5.4395,5.4396,5.4503,5.4504,5.4505]}]]